www.pogodaiklimat.ru

Погода и климат >> Архив погоды >> Россия >> Ростовская область >> Ростов-на-Дону


АРХИВ ПОГОДЫ в Ростове-на-Дону

Время (UTC), дата Ветер
(напр.,м/с)
 
Видим.   Явления Облачность Т
(С)
Тd
(С)
f
(%)
Тe
(С)
Тes
(С)
Комфортность P
(гПа)
Po
(гПа)
Тmin
(С)
Tmax
(С)
R
(мм)
R24
(мм)
S
(см)
09 14.06 н/о 1/0
[Ci fib]
+30.0 +11.1 31 1008.2 998.8
12 14.06 н/о ясно +31.4 +7.3 22 1007.5 998.2
15 14.06 н/о ясно +30.5 +6.8 23 1006.8 997.5 +31.8
18 14.06 н/о ясно +27.3 +8.2 30 1007.0 997.6
21 14.06 н/о ясно +22.5 +8.3 40 1007.8 998.2
00 15.06 н/о ясно +22.1 +5.3 33 1007.3 997.7
03 15.06 н/о ясно +21.0 +9.4 47 1007.7 998.1 +20.4
06 15.06 н/о ясно +26.5 +13.5 45 1007.6 998.1
09 15.06 н/о ясно +31.8 +10.3 27 1007.5 998.2
12 15.06 н/о 3/0 2000 м
[Ac trans Ci fib]
+32.7 +7.7 21 1007.1 997.8
15 15.06 н/о 4/3 600 м
[Cb calv Ac trans]
+31.1 +7.5 23 1006.9 997.6 +33.2
18 15.06 н/о 6/0
[Ci fib]
+27.0 +9.1 32 1007.8 998.3
21 15.06 н/о ясно +24.5 +7.2 33 1007.4 997.9
00 16.06 н/о ясно +22.8 +6.0 34 1007.7 998.1
03 16.06 н/о 4/0 2000 м
[Ac trans Ci fib]
+22.4 +9.0 42 1008.5 998.9 +21.8
06 16.06 н/о 3/0
[Ci fib]
+26.6 +13.1 43 1009.6 1000.1
09 16.06 н/о 4/0
[Ci fib]
+31.1 +10.5 28 1009.8 1000.5
12 16.06 н/о 8/0 2000 м
[Ac trans Ci fib]
+32.2 +10.1 26 1009.5 1000.2
15 16.06 н/о 6/0
[Ci fib]
+30.8 +8.3 25 1009.6 1000.2 +32.7
18 16.06 н/о 9/0
[Ci fib]
+27.5 +9.4 32 1010.4 1000.9
21 16.06 н/о ясно +24.0 +4.9 29 1011.2 1001.6
00 17.06 н/о ясно +21.3 +2.1 28 1012.0 1002.3
03 17.06 н/о 3/0
[Ci fib]
+18.9 +2.8 34 1012.7 1002.9 +18.8
06 17.06 н/о 3/0
[Ci fib]
+23.4 +4.2 29 1012.7 1003.1
09 17.06 н/о 4/0 2000 м
[Ac trans Ci fib]
+26.6 +3.3 22 1012.6 1003.1
12 17.06 н/о 5/0 2000 м
[Ac trans Ci fib]
+27.0 +3.0 21 1011.6 1002.1
15 17.06 н/о 5/0 2000 м
[Ac trans Ci fib]
+25.4 +1.8 21 1011.0 1001.5 +28.2
18 17.06 н/о 4/0 2000 м
[Ac trans Ci fib]
+23.0 -0.9 20 1011.8 1002.2
21 17.06 н/о 3/0 2000 м
[Ac trans]
+21.9 -0.6 22 1011.5 1001.8
00 18.06 н/о ясно +19.9 -0.4 26 1011.3 1001.6
03 18.06 н/о 8/0
[Ci fib]
+19.3 +3.1 34 1011.4 1001.7 +18.7
06 18.06 н/о 5/0 2000 м
[Ac trans Ci fib]
+24.3 +4.9 29 1011.2 1001.6
09 18.06 н/о 3/0 2000 м
[Ac trans]
+28.2 +2.1 19 1010.6 1001.1
12 18.06 н/о ясно +29.5 +2.1 17 1010.1 1000.7
15 18.06 н/о ясно +28.2 -0.9 15 1010.0 1000.5 +29.7
18 18.06 ЮЗ 1 10 км ясно +23.1 +1.2 24 +22 +22 комфорт 1010.7 1001.1
21 18.06 н/о ясно +22.5 -1.1 21 1011.2 1001.6
00 19.06 н/о ясно +17.7 +1.1 33 1012.1 1002.3
03 19.06 н/о ясно +17.1 +4.8 44 1012.9 1003.1 +17.1
06 19.06 н/о ясно +27.5 +4.2 22 1013.3 1003.8
09 19.06 н/о ясно +29.9 +0.3 15 1013.1 1003.7
12 19.06 н/о ясно +30.7 -0.5 13 1012.5 1003.1
15 19.06 н/о ясно +29.5 +0.2 15 1011.9 1002.5 +31.0
18 19.06 н/о ясно +21.7 +3.9 31 1013.1 1003.4
21 19.06 н/о ясно +20.5 +5.3 37 1013.2 1003.5
00 20.06 н/о ясно +20.2 +6.4 41 1013.3 1003.6
03 20.06 н/о ясно +19.8 +9.5 51 1014.1 1004.4 +19.4
06 20.06 н/о ясно +30.0 +10.1 29 1014.4 1005.0
09 20.06 н/о 5/1 300 м
[Cu hum Ci fib]
+32.0 +6.1 20 1014.1 1004.7
12 20.06 н/о 3/3 300 м
[Cu hum Ci fib]
+33.2 +7.4 20 1013.0 1003.7
15 20.06 н/о ясно +30.9 +9.3 26 1012.6 1003.2 +33.5
18 20.06 н/о ясно +26.3 +10.0 36 1013.2 1003.7
21 20.06 н/о ясно +24.0 +10.0 41 1013.6 1004.0
00 21.06 н/о ясно +22.3 +10.5 47 1013.7 1004.0
03 21.06 н/о 3/0 2000 м
[Ac trans]
+22.9 +13.3 55 1014.2 1004.6 +21.8

 

Местоположение метеостанции Ростов-на-Дону (Ростовская область, Россия): широта 47.27 долгота 39.82 высота над уровнем моря 75 м.

В архиве по умолчанию представлена погода в Ростове-на-Дону за последнюю неделю. Архивные данные за месяц целиком и за предыдущие месяцы, начиная с января 2011 года, Вы можете получить, выбрав интересующий диапазон дат из раскрывающегося списка и нажав кнопку "Ввод!".


*Определитесь, кто Вы:
робот инопланетянин человек

Внимание! Время в таблицах - всемирное. Для получения местного времени необходимо прибавить поправку, которая в Ростове-на-Дону равна 3 ч.

Смотрите также архив погоды в соседних городах и на ближайших метеорологических станциях:

Погода в Аэропорту Платов (Ростовская область, Россия) (26 км)
Погода в Шахтах (Ростовская область, Россия) (59 км)
Погода в Зерноград (Ростовская область, Россия) (60 км)
Погода в Таганроге (Ростовская область, Россия) (70 км)
Погода в Матвеевом Кургане (Ростовская область, Россия) (78 км)
Погода в Семикаракорске (Ростовская область, Россия) (81 км)
Погода в Маргаритово (Ростовская область, Россия) (81 км)
Погода в Кущевской (Краснодарский край, Россия) (84 км)
Погода в Константиновске (Ростовская область, Россия) (102 км)
Погода в Староминская (Краснодарский край, Россия) (102 км)

Пояснения к столбцам:

Ветер - указаны скорость ветра в м/с - средняя за 10 мин, порывы в срок и между сроками (в фигурных скобках) и направление, откуда дует ветер: С - северный, СВ - северо-восточный, В - восточный, ЮВ - юго-восточный, Ю - южный, ЮЗ - юго-западный, З - западный, СЗ - северо-западный.
Видимость - горизонтальная дальность видимости в метрах или километрах. При видимости от 1 до 10 км при отсутствии осадков обычно наблюдается дымка, при ухудшении видимости до 1 км и менее - туман. В сухую погоду видимость может ухудшаться дымом, пылью или мглою.
Явления - указаны атмосферные явления, наблюдавшиеся в срок или в последний час перед сроком; фигурными скобками обозначены явления, наблюдавшиеся между сроками (за 1-3 часа до срока); квадратными скобками обозначены град или гололедные отложения с указанием их диаметра в мм.
Облачность - указаны через наклонную черту общая и нижняя облачность в баллах и высота нижней границы облаков в метрах; квадратными скобками обозначены формы облаков: Ci - перистые, Cs - перисто-слоистые, Cc - перисто-кучевые, Ac - высококучевые, As - высокослоистые, Sc - слоисто-кучевые, Ns - слоисто-дождевые, Cu - кучевые, Cb - кучево-дождевые. Подробнее классификацию облаков см. в Атласе облаков (PDF).
T - Температура воздуха - температура, измеренная на высоте 2 м над землей.
Td - Температура точки росы - температура, при понижении до которой содержащийся в воздухе водяной пар достигнет насыщения.
f - Относительная влажность воздуха - влажноcть воздуха, измеренная на высоте 2 м над землей.
Te - Эффективная температура - температура, которую ощущает одетый по сезону человек в тени. Характеристика душности погоды. При расчете учитывается влияние влажности воздуха и скорости ветра на теплоощущения человека.
Tes - Эффективная температура на солнце - температура, которую ощущает человек, с поправкой на солнечный нагрев. Характеристика знойности погоды. Зависит от высоты солнца над горизонтом, облачности и скорости ветра. Ночью, в пасмурную погоду, а также при ветре 12 м/с и более поправка равна нулю.
P - Атмосферное давление - приведенное к уровню моря атмосферное давление.
Po - Атмосферное давление - измеренное на уровне метеостанции атмосферное давление.
Tmin - Минимальная температура - минимум температуры воздуха на высоте 2 м над землей.
Tmax - Максимальная температура - максимум температуры воздуха на высоте 2 м над землей.
R - Количество осадков - Количество выпавших осадков за период времени, мм. При наведении курсора мыши на число - период времени, за который выпало указанное количество осадков.
R24 - Количество осадков - Количество выпавших осадков за 24 часа, мм.
S - Снежный покров - Высота снежного покрова, см. При наведении курсора мыши на число - состояние снежного покрова и степень покрытия местности в баллах.